London,

4:49 AM EDT on July 25, 2017 (GMT -0400)
London

Weather History for CYXU - October, 2012

Change the Weather History Date:

Tuesday, October 9, 2012

  Actual Average Record
Temperature  
Mean Temperature 46 °F -  
Max Temperature 57 °F 54 °F 78 °F (2011)
Min Temperature 35 °F 37 °F 33 °F (2000)
Degree Days  
Heating Degree Days 19    
Moisture  
Dew Point 38 °F    
Average Humidity 75    
Maximum Humidity 93    
Minimum Humidity 54    
Precipitation  
Precipitation 0.00 in 0.11 in - ()
Sea Level Pressure  
Sea Level Pressure 30.08 in    
Wind  
Wind Speed 6 mph ()    
Max Wind Speed 22 mph    
Max Gust Speed 29 mph    
Visibility 15.0 miles    
Events      
Averages and records for this station are not official NWS values.
T = Trace of Precipitation, MM = Missing Value Source: Averaged Metar Reports

Daily Weather History Graph

Daily Weather History Graph

Search for Another Location

Airport or City:

Trip Planner

Search our weather history database for the weather conditions in past years. The results will help you decide how hot, cold, wet, or windy it might be!

Date:

Astronomy

Oct. 09, 2012 Rise Set
Actual Time 7:31 AM EDT 6:51 PM EDT
Civil Twilight 7:03 AM EDT 7:19 PM EDT
Nautical Twilight 6:30 AM EDT 7:52 PM EDT
Astronomical Twilight 5:57 AM EDT 8:25 PM EDT
Moon 12:57 AM EDT (10/9) 3:25 PM EDT (10/9)
Length of Visible Light 12h 16m
Length of Day
11h 19m
Last Quarter, 37% of the Moon is Illuminated
Oct 9
Last Quarter
Oct 15
New
Oct 21
First Quarter
Oct 29
Full
Nov 6
Last Quarter

Hourly Weather History & Observations

Time (EDT) Temp. Windchill Dew Point Humidity Pressure Visibility Wind Dir Wind Speed Gust Speed Precip Events Conditions
12:00 AM 37.4 °F - 33.8 °F 87% 30.18 in 15.0 mi Calm Calm - N/A   Partly Cloudy
1:00 AM 37.4 °F 32.8 °F 35.6 °F 93% 30.16 in 15.0 mi East 5.8 mph - N/A   Scattered Clouds
2:00 AM 37.4 °F - 35.6 °F 93% 30.16 in 15.0 mi Calm Calm - N/A   Mostly Cloudy
2:06 AM 35.6 °F - 33.8 °F 93% 30.17 in 15.0 mi Calm Calm - N/A   Mostly Cloudy
3:00 AM 37.4 °F 34.9 °F 35.6 °F 93% 30.16 in 15.0 mi East 3.5 mph - N/A   Mostly Cloudy
4:00 AM 39.2 °F - 35.6 °F 87% 30.14 in 15.0 mi East 2.3 mph - N/A   Mostly Cloudy
5:00 AM 37.4 °F 33.8 °F 35.6 °F 93% 30.14 in 15.0 mi ESE 4.6 mph - N/A   Mostly Cloudy
6:00 AM 39.2 °F 37.0 °F 35.6 °F 87% 30.14 in 15.0 mi ESE 3.5 mph - N/A   Mostly Cloudy
7:00 AM 41.0 °F 39.0 °F 35.6 °F 81% 30.15 in 15.0 mi SW 3.5 mph - N/A   Mostly Cloudy
8:00 AM 37 °F - 34 °F 84% 30.16 in 15 mi Calm Calm - -  
8:00 AM 37.4 °F - 33.8 °F 87% 30.15 in 15.0 mi Calm Calm - N/A   Mostly Cloudy
9:00 AM 44.6 °F 41.4 °F 39.2 °F 81% 30.15 in 15.0 mi South 5.8 mph - N/A   Mostly Cloudy
10:00 AM 50.0 °F - 41.0 °F 71% 30.14 in 15.0 mi SSW 12.7 mph - N/A   Scattered Clouds
11:00 AM 53.6 °F - 41.0 °F 62% 30.12 in 15.0 mi SSW 20.7 mph - N/A   Mostly Cloudy
12:00 PM 53.6 °F - 42.8 °F 67% 30.11 in 15.0 mi SSW 19.6 mph - N/A   Mostly Cloudy
1:00 PM 55.4 °F - 39.2 °F 54% 30.08 in 15.0 mi South 21.9 mph 27.6 mph N/A   Mostly Cloudy
2:00 PM 57.2 °F - 41.0 °F 55% 30.05 in 15.0 mi South 20.7 mph 28.8 mph N/A   Mostly Cloudy
3:00 PM 55.4 °F - 39.2 °F 54% 30.04 in 15.0 mi South 19.6 mph 27.6 mph N/A   Mostly Cloudy
4:00 PM 53.6 °F - 39.2 °F 58% 30.03 in 15.0 mi South 19.6 mph 27.6 mph N/A   Mostly Cloudy
5:00 PM 53.6 °F - 39.2 °F 58% 30.01 in 15.0 mi South 16.1 mph 27.6 mph N/A   Overcast
6:00 PM 51.8 °F - 39.2 °F 62% 30.00 in 15.0 mi South 15.0 mph - N/A   Overcast
7:00 PM 50.0 °F - 39.2 °F 66% 29.99 in 15.0 mi South 11.5 mph - N/A   Overcast
8:00 PM 49 °F - 40 °F 62% 29.98 in 15 mi SSE 6.9 mph - -   Overcast
8:00 PM 48.2 °F - 39.2 °F 71% 29.98 in 15.0 mi SSE 6.9 mph - N/A   Overcast
9:00 PM 44.6 °F 41.4 °F 39.2 °F 81% 29.97 in 15.0 mi SE 5.8 mph - N/A   Overcast
10:00 PM 46.4 °F 41.9 °F 41.0 °F 81% 29.95 in 15.0 mi SE 9.2 mph - N/A   Overcast
11:00 PM 46.4 °F 43.5 °F 39.2 °F 76% 29.94 in 15.0 mi South 5.8 mph - N/A   Mostly Cloudy